Погода в Шарбакты

Казахстан     52°29′19″N   78°09′31″E
темп.,
°C
ветер,
м/с
пор.,
м/с
влажн.,
%
обл.,
%
осадки,
мм/ч
давл.,
гПа
погр.,
м
1 марта, пн
пн100:00−2ю101696100 1.6 1011656
03:00+1ююз101798100 1.4 1008677
06:00+1зюз71499100 2.3 1007529
09:00+1юз71595100 0.1 1007730
12:00+1юз815100100 0.2 1008826
15:00+1юз7139253 0.0 1008970
18:00−1зюз6138726 0.1 1009404
21:00−4зюз5118934 0.0 1010231
2 марта, вт
вт200:00−6зюз6129255 0.0 1013288
03:00−11з5109583 0.0 1015231
06:00−15з449789 0.1 101784
09:00−16зюз359683 0.0 101889
12:00−12зюз349283 0.0 1017247
15:00−10зюз3492100 0.0 1016329
18:00−12юз2296100 0.1 101521
21:00−12зюз2296100 0.1 101621
3 марта, ср
ср300:00−12юз3396100 0.1 101647
03:00−11зюз489593 0.1 1016262
06:00−13зюз599497 0.4 1018310
09:00−14зюз699395 0.1 1019350
12:00−14юз689397 0.2 1021381
15:00−12юз6989100 0.0 1021515
18:00−12ююз51189100 0.0 1021454
21:00−12ююз6118894 0.0 1021257
4 марта, чт
чт400:00−10ююз6128596 0.0 1021327
03:00−10ююз61287100 0.0 1020317
06:00−9ююз71288100 0.0 1020325
09:00−8ю71388100 0.0 1018351
12:00−4ююз81484100 0.0 1018667
15:00−2ююз81384100 0.1 1016709
18:00−3ююз81582100 0.1 1015472
21:00−3ююз81582100 0.0 1014398
5 марта, пт
пт500:00−5ю7158394 0.0 1014289
03:00−6ю61186100 0.0 1012240
06:00−6ю51190100 0.1 1009363
09:00−6юз3696100 0.9 1008239
12:00−2з8129295 1.1 1012596
15:00−4з7138260 0.0 1017675
18:00−5юз7158130 0.0 1020524
21:00−6юз9187669 0.0 1020629